QPF
0.01 0.01 0.01 0.02 0.02 0.02 0.01 0.02 0.02 0.02 0.01 0.00 0.00 0.00 0.00 0.01 0.01 0.01 0.01 0.01 0.01 0.01 0.01 0.01 0.01 0.01 0.01 0.01 0.01 0.01 0.01 0.01 0.02 0.02 0.02 0.02 0.02 0.02
0.01 0.01 0.01 0.01 0.02 0.02 0.02 0.02 0.02 0.02 0.01 0.00 0.00 0.00 0.00 0.00 0.01 0.01 0.01 0.01 0.01 0.01 0.01 0.01 0.01 0.01 0.01 0.01 0.00 0.00 0.01 0.01 0.01 0.01 0.01 0.01 0.01 0.02
0.03 0.02 0.02 0.02 0.02 0.02 0.02 0.02 0.02 0.02 0.02 0.01 0.00 0.00 0.01 0.01 0.01 0.01 0.01 0.01 0.01 0.01 0.01 0.01 0.01 0.01 0.01 0.00 0.00 0.00 0.01 0.01 0.01 0.01 0.01 0.01 0.02 0.03
0.04 0.03 0.02 0.02 0.03 0.02 0.02 0.02 0.02 0.02 0.02 0.01 0.01 0.01 0.01 0.01 0.01 0.01 0.01 0.01 0.01 0.01 0.01 0.01 0.01 0.01 0.01 0.00 0.00 0.00 0.01 0.01 0.01 0.01 0.02 0.03 0.04 0.04
0.04 0.03 0.03 0.03 0.03 0.02 0.02 0.02 0.02 0.02 0.02 0.01 0.01 0.01 0.01 0.01 0.01 0.01 0.01 0.01 0.01 0.01 0.01 0.01 0.01 0.01 0.01 0.01 0.01 0.01 0.01 0.01 0.02 0.03 0.03 0.04 0.05 0.04
0.06 0.05 0.04 0.03 0.03 0.02 0.03 0.03 0.03 0.02 0.02 0.02 0.01 0.01 0.01 0.02 0.02 0.01 0.01 0.01 0.01 0.01 0.01 0.01 0.01 0.01 0.01 0.01 0.01 0.01 0.01 0.01 0.02 0.02 0.03 0.03 0.04 0.03
0.07 0.07 0.06 0.05 0.04 0.04 0.03 0.03 0.03 0.03 0.03 0.03 0.02 0.01 0.01 0.01 0.01 0.01 0.01 0.01 0.01 0.01 0.01 0.01 0.01 0.01 0.01 0.01 0.01 0.01 0.01 0.01 0.02 0.03 0.03 0.03 0.03 0.03
0.07 0.07 0.07 0.07 0.07 0.05 0.04 0.04 0.03 0.03 0.03 0.03 0.03 0.02 0.01 0.01 0.01 0.01 0.01 0.01 0.01 0.01 0.01 0.01 0.01 0.01 0.01 0.01 0.01 0.01 0.01 0.01 0.01 0.02 0.02 0.02 0.02 0.02
0.05 0.06 0.06 0.07 0.07 0.06 0.05 0.04 0.03 0.03 0.03 0.02 0.02 0.02 0.01 0.01 0.01 0.02 0.02 0.02 0.02 0.02 0.01 0.01 0.01 0.01 0.01 0.01 0.01 0.00 0.00 0.01 0.01 0.01 0.01 0.01 0.01 0.02
0.03 0.04 0.04 0.05 0.05 0.05 0.05 0.04 0.03 0.03 0.03 0.02 0.02 0.01 0.01 0.01 0.02 0.02 0.02 0.03 0.03 0.03 0.02 0.02 0.02 0.01 0.01 0.01 0.01 0.01 0.01 0.01 0.01 0.01 0.01 0.01 0.02 0.02
0.03 0.03 0.03 0.03 0.03 0.03 0.03 0.03 0.03 0.02 0.03 0.02 0.02 0.02 0.02 0.02 0.02 0.01 0.02 0.02 0.03 0.02 0.02 0.01 0.01 0.01 0.01 0.01 0.01 0.01 0.00 0.00 0.01 0.01 0.01 0.01 0.01 0.01
0.03 0.03 0.03 0.03 0.03 0.03 0.02 0.02 0.03 0.02 0.02 0.03 0.03 0.03 0.02 0.02 0.02 0.01 0.01 0.02 0.02 0.02 0.01 0.01 0.01 0.01 0.01 0.01 0.01 0.01 0.00 0.01 0.00 0.00 0.01 0.01 0.01 0.01
0.02 0.03 0.03 0.03 0.03 0.03 0.03 0.02 0.02 0.02 0.02 0.02 0.03 0.03 0.03 0.02 0.01 0.01 0.01 0.01 0.02 0.01 0.01 0.01 0.01 0.01 0.01 0.01 0.01 0.01 0.01 0.00 0.00 0.00 0.01 0.01 0.00 0.00
0.02 0.02 0.02 0.02 0.03 0.03 0.02 0.03 0.03 0.02 0.02 0.03 0.03 0.03 0.03 0.02 0.01 0.01 0.01 0.01 0.01 0.01 0.01 0.01 0.01 0.01 0.01 0.01 0.01 0.01 0.01 0.01 0.00 0.01 0.01 0.01 0.01 0.01
0.02 0.02 0.02 0.02 0.02 0.02 0.02 0.03 0.02 0.02 0.02 0.02 0.03 0.03 0.02 0.02 0.01 0.01 0.01 0.01 0.01 0.01 0.01 0.01 0.01 0.01 0.01 0.01 0.01 0.01 0.01 0.01 0.00 0.00 0.01 0.01 0.01 0.01
0.03 0.03 0.03 0.02 0.03 0.03 0.03 0.03 0.03 0.02 0.02 0.02 0.02 0.02 0.02 0.03 0.02 0.01 0.01 0.01 0.01 0.00 0.00 0.00 0.00 0.00 0.01 0.01 0.01 0.01 0.01 0.01 0.01 0.00 0.00 0.00 0.00 0.00
0.03 0.03 0.03 0.04 0.04 0.04 0.03 0.03 0.03 0.03 0.03 0.03 0.03 0.02 0.02 0.03 0.03 0.02 0.01 0.01 0.01 0.01 0.00 0.00 0.00 0.00 0.00 0.01 0.01 0.00 0.00 0.00 0.00 0.00 0.00 0.00 0.00 0.00
0.03 0.03 0.03 0.04 0.05 0.04 0.04 0.03 0.03 0.03 0.03 0.03 0.03 0.03 0.02 0.02 0.03 0.03 0.02 0.02 0.01 0.01 0.01 0.01 0.01 0.01 0.01 0.01 0.00 0.00 0.00 0.00 0.00 0.00 0.01 0.01 0.01 0.01
0.03 0.03 0.03 0.03 0.04 0.04 0.04 0.04 0.03 0.03 0.03 0.03 0.03 0.03 0.03 0.03 0.03 0.03 0.02 0.02 0.02 0.01 0.01 0.01 0.01 0.02 0.02 0.01 0.00 0.00 0.00 0.00 0.00 0.00 0.01 0.01 0.01 0.01
0.04 0.04 0.04 0.03 0.04 0.04 0.04 0.04 0.04 0.03 0.03 0.03 0.03 0.03 0.03 0.03 0.03 0.02 0.02 0.02 0.02 0.02 0.02 0.01 0.01 0.02 0.02 0.02 0.02 0.01 0.01 0.01 0.01 0.01 0.01 0.01 0.01 0.01
0.06 0.05 0.05 0.04 0.04 0.03 0.04 0.04 0.04 0.04 0.04 0.04 0.04 0.03 0.03 0.03 0.03 0.03 0.02 0.02 0.02 0.02 0.02 0.02 0.01 0.02 0.03 0.03 0.03 0.01 0.01 0.01 0.01 0.01 0.01 0.02 0.02 0.01
0.07 0.06 0.06 0.05 0.04 0.04 0.03 0.03 0.04 0.04 0.04 0.04 0.04 0.04 0.03 0.03 0.03 0.03 0.02 0.02 0.02 0.02 0.02 0.02 0.02 0.02 0.02 0.03 0.03 0.01 0.01 0.01 0.01 0.01 0.02 0.02 0.03 0.03
0.06 0.06 0.06 0.05 0.05 0.04 0.04 0.03 0.03 0.04 0.04 0.04 0.04 0.04 0.04 0.03 0.03 0.03 0.03 0.03 0.03 0.03 0.02 0.02 0.02 0.02 0.02 0.02 0.02 0.02 0.01 0.01 0.01 0.01 0.01 0.01 0.01 0.02
MSLP
1027.13 1027.01 1026.85 1026.63 1026.33 1025.93 1025.43 1024.86 1024.25 1023.64 1023.06 1022.54 1022.10 1021.74 1021.44 1021.18 1020.94 1020.68 1020.41 1020.13 1019.83 1019.55 1019.30 1019.09 1018.92 1018.79 1018.69 1018.59 1018.49 1018.36 1018.22 1018.06 1017.90 1017.76 1017.64 1017.57 1017.53 1017.54
1027.09 1027.05 1026.97 1026.83 1026.61 1026.28 1025.84 1025.32 1024.75 1024.16 1023.59 1023.07 1022.61 1022.22 1021.88 1021.56 1021.24 1020.90 1020.55 1020.17 1019.80 1019.44 1019.12 1018.85 1018.63 1018.46 1018.32 1018.20 1018.07 1017.92 1017.75 1017.56 1017.38 1017.21 1017.07 1016.97 1016.92 1016.90
1026.80 1026.82 1026.81 1026.75 1026.60 1026.34 1025.98 1025.54 1025.03 1024.50 1023.98 1023.50 1023.06 1022.67 1022.30 1021.94 1021.56 1021.16 1020.72 1020.26 1019.79 1019.35 1018.94 1018.60 1018.32 1018.09 1017.91 1017.74 1017.57 1017.39 1017.19 1016.98 1016.77 1016.58 1016.42 1016.31 1016.25 1016.22
1026.34 1026.40 1026.44 1026.42 1026.34 1026.15 1025.87 1025.50 1025.08 1024.62 1024.17 1023.74 1023.34 1022.97 1022.61 1022.22 1021.81 1021.35 1020.84 1020.30 1019.75 1019.23 1018.74 1018.33 1017.97 1017.69 1017.44 1017.23 1017.02 1016.80 1016.56 1016.32 1016.09 1015.88 1015.71 1015.60 1015.54 1015.53
1025.77 1025.85 1025.92 1025.94 1025.89 1025.76 1025.53 1025.23 1024.87 1024.49 1024.11 1023.74 1023.39 1023.05 1022.70 1022.32 1021.89 1021.39 1020.84 1020.24 1019.63 1019.03 1018.48 1017.99 1017.57 1017.22 1016.93 1016.66 1016.40 1016.15 1015.88 1015.62 1015.37 1015.15 1014.98 1014.87 1014.82 1014.83
1025.15 1025.24 1025.31 1025.35 1025.32 1025.20 1025.01 1024.74 1024.43 1024.10 1023.77 1023.46 1023.16 1022.85 1022.53 1022.16 1021.73 1021.22 1020.65 1020.02 1019.37 1018.73 1018.12 1017.58 1017.11 1016.70 1016.36 1016.04 1015.75 1015.46 1015.17 1014.88 1014.62 1014.39 1014.23 1014.13 1014.10 1014.13
1024.49 1024.57 1024.65 1024.68 1024.64 1024.53 1024.34 1024.09 1023.79 1023.49 1023.19 1022.91 1022.64 1022.37 1022.08 1021.73 1021.32 1020.82 1020.25 1019.62 1018.96 1018.29 1017.66 1017.09 1016.58 1016.13 1015.74 1015.39 1015.06 1014.74 1014.43 1014.13 1013.86 1013.63 1013.47 1013.38 1013.36 1013.41
1023.76 1023.85 1023.91 1023.93 1023.88 1023.75 1023.55 1023.29 1022.99 1022.69 1022.40 1022.13 1021.89 1021.64 1021.37 1021.06 1020.68 1020.21 1019.66 1019.05 1018.40 1017.74 1017.11 1016.52 1015.99 1015.52 1015.11 1014.73 1014.37 1014.03 1013.70 1013.39 1013.10 1012.87 1012.70 1012.61 1012.60 1012.66
1022.94 1023.03 1023.09 1023.10 1023.03 1022.88 1022.66 1022.38 1022.07 1021.75 1021.46 1021.19 1020.96 1020.73 1020.49 1020.20 1019.86 1019.43 1018.93 1018.36 1017.74 1017.11 1016.49 1015.91 1015.37 1014.89 1014.46 1014.07 1013.69 1013.33 1012.98 1012.66 1012.36 1012.11 1011.93 1011.82 1011.80 1011.84
1022.02 1022.11 1022.17 1022.17 1022.09 1021.92 1021.67 1021.37 1021.05 1020.72 1020.42 1020.15 1019.91 1019.70 1019.48 1019.23 1018.92 1018.54 1018.08 1017.56 1016.99 1016.40 1015.82 1015.26 1014.74 1014.27 1013.83 1013.43 1013.04 1012.67 1012.30 1011.96 1011.64 1011.36 1011.15 1011.01 1010.95 1010.96
1020.98 1021.07 1021.13 1021.12 1021.03 1020.85 1020.60 1020.29 1019.95 1019.62 1019.31 1019.04 1018.81 1018.60 1018.40 1018.18 1017.91 1017.57 1017.17 1016.70 1016.19 1015.65 1015.11 1014.58 1014.09 1013.64 1013.22 1012.82 1012.43 1012.05 1011.67 1011.30 1010.95 1010.64 1010.39 1010.20 1010.08 1010.02
1019.86 1019.94 1019.98 1019.97 1019.87 1019.69 1019.44 1019.12 1018.79 1018.45 1018.15 1017.88 1017.66 1017.46 1017.28 1017.08 1016.84 1016.55 1016.19 1015.78 1015.32 1014.83 1014.35 1013.87 1013.42 1013.00 1012.60 1012.22 1011.84 1011.46 1011.07 1010.69 1010.31 1009.96 1009.65 1009.39 1009.20 1009.07
1018.71 1018.76 1018.78 1018.74 1018.64 1018.45 1018.19 1017.88 1017.55 1017.23 1016.93 1016.67 1016.45 1016.27 1016.09 1015.91 1015.69 1015.44 1015.12 1014.76 1014.36 1013.93 1013.50 1013.09 1012.69 1012.32 1011.97 1011.61 1011.26 1010.89 1010.51 1010.11 1009.70 1009.31 1008.94 1008.62 1008.34 1008.13
1017.58 1017.58 1017.55 1017.48 1017.35 1017.14 1016.88 1016.58 1016.25 1015.93 1015.65 1015.39 1015.18 1014.99 1014.82 1014.65 1014.45 1014.21 1013.93 1013.61 1013.27 1012.90 1012.54 1012.19 1011.87 1011.56 1011.26 1010.96 1010.65 1010.31 1009.95 1009.55 1009.13 1008.70 1008.28 1007.88 1007.53 1007.22
1016.51 1016.44 1016.35 1016.22 1016.05 1015.81 1015.53 1015.22 1014.90 1014.58 1014.29 1014.04 1013.82 1013.63 1013.46 1013.28 1013.09 1012.86 1012.61 1012.33 1012.03 1011.73 1011.43 1011.16 1010.91 1010.68 1010.46 1010.23 1009.97 1009.69 1009.35 1008.97 1008.54 1008.09 1007.63 1007.17 1006.74 1006.35
1015.53 1015.37 1015.21 1015.01 1014.77 1014.50 1014.19 1013.85 1013.52 1013.19 1012.90 1012.63 1012.40 1012.20 1012.01 1011.82 1011.62 1011.40 1011.16 1010.91 1010.65 1010.41 1010.18 1009.98 1009.81 1009.67 1009.53 1009.38 1009.20 1008.97 1008.68 1008.33 1007.92 1007.46 1006.97 1006.47 1005.98 1005.52
1014.62 1014.39 1014.14 1013.87 1013.57 1013.24 1012.89 1012.52 1012.16 1011.81 1011.50 1011.21 1010.96 1010.73 1010.52 1010.30 1010.09 1009.86 1009.63 1009.40 1009.18 1008.98 1008.81 1008.68 1008.59 1008.52 1008.46 1008.40 1008.29 1008.13 1007.91 1007.60 1007.22 1006.77 1006.27 1005.74 1005.21 1004.69
1013.79 1013.49 1013.17 1012.83 1012.47 1012.08 1011.68 1011.27 1010.88 1010.50 1010.15 1009.83 1009.55 1009.28 1009.04 1008.80 1008.56 1008.32 1008.09 1007.86 1007.66 1007.50 1007.38 1007.30 1007.27 1007.27 1007.28 1007.29 1007.25 1007.16 1007.00 1006.74 1006.40 1005.98 1005.49 1004.96 1004.40 1003.84
1013.02 1012.66 1012.29 1011.90 1011.48 1011.04 1010.59 1010.14 1009.70 1009.28 1008.89 1008.53 1008.21 1007.90 1007.62 1007.35 1007.09 1006.83 1006.59 1006.37 1006.18 1006.03 1005.93 1005.89 1005.90 1005.94 1006.01 1006.07 1006.09 1006.06 1005.95 1005.76 1005.46 1005.08 1004.62 1004.09 1003.53 1002.96
1012.31 1011.92 1011.51 1011.07 1010.61 1010.12 1009.62 1009.12 1008.63 1008.16 1007.72 1007.31 1006.94 1006.60 1006.28 1005.98 1005.69 1005.42 1005.16 1004.93 1004.75 1004.61 1004.52 1004.49 1004.52 1004.58 1004.67 1004.77 1004.83 1004.85 1004.79 1004.65 1004.41 1004.07 1003.65 1003.16 1002.61 1002.05
1011.64 1011.24 1010.81 1010.33 1009.82 1009.29 1008.73 1008.16 1007.61 1007.08 1006.58 1006.11 1005.69 1005.31 1004.95 1004.62 1004.32 1004.03 1003.77 1003.54 1003.36 1003.22 1003.13 1003.11 1003.13 1003.21 1003.31 1003.41 1003.51 1003.56 1003.54 1003.45 1003.26 1002.98 1002.61 1002.16 1001.65 1001.12
1011.03 1010.61 1010.15 1009.64 1009.08 1008.47 1007.84 1007.20 1006.56 1005.95 1005.37 1004.84 1004.36 1003.93 1003.54 1003.19 1002.88 1002.60 1002.34 1002.13 1001.95 1001.82 1001.74 1001.72 1001.75 1001.82 1001.92 1002.04 1002.14 1002.22 1002.24 1002.19 1002.06 1001.84 1001.53 1001.13 1000.68 1000.18
1010.46 1010.02 1009.51 1008.94 1008.30 1007.60 1006.87 1006.12 1005.38 1004.66 1003.99 1003.38 1002.83 1002.35 1001.93 1001.57 1001.26 1000.99 1000.77 1000.58 1000.45 1000.35 1000.30 1000.29 1000.34 1000.42 1000.53 1000.66 1000.78 1000.88 1000.94 1000.93 1000.85 1000.69 1000.44 1000.10 999.70 999.25
Thickness
5569 5569 5570 5571 5572 5573 5574 5573 5572 5570 5571 5572 5572 5574 5573 5572 5571 5570 5570 5569 5568 5567 5565 5563 5561 5559 5557 5555 5553 5550 5547 5545 5542 5540 5538 5535 5533 5531
5560 5561 5562 5563 5563 5564 5565 5566 5566 5566 5565 5565 5564 5565 5564 5564 5563 5562 5561 5560 5559 5558 5556 5554 5553 5550 5548 5546 5544 5541 5538 5536 5533 5531 5528 5526 5524 5522
5553 5554 5555 5555 5555 5555 5556 5556 5557 5557 5556 5555 5555 5555 5555 5554 5553 5552 5552 5551 5550 5548 5547 5545 5543 5541 5538 5536 5534 5532 5529 5526 5523 5521 5518 5516 5514 5512
5545 5545 5547 5547 5547 5546 5546 5547 5548 5548 5548 5546 5545 5544 5544 5544 5543 5542 5541 5541 5540 5539 5537 5535 5533 5531 5529 5527 5524 5522 5519 5516 5513 5511 5509 5507 5505 5502
5536 5537 5539 5538 5539 5538 5538 5538 5539 5539 5539 5537 5536 5534 5533 5533 5532 5531 5530 5529 5529 5528 5526 5525 5523 5521 5519 5517 5514 5511 5509 5506 5504 5501 5499 5497 5495 5493
5528 5529 5530 5531 5531 5530 5530 5530 5530 5529 5528 5527 5526 5524 5522 5521 5520 5520 5519 5518 5517 5516 5515 5514 5512 5510 5509 5507 5504 5502 5499 5496 5494 5492 5490 5488 5485 5483
5517 5520 5521 5522 5522 5522 5522 5521 5520 5520 5518 5517 5516 5514 5512 5510 5510 5510 5508 5507 5506 5506 5505 5504 5502 5500 5498 5496 5494 5491 5489 5486 5484 5482 5480 5478 5475 5473
5507 5508 5509 5511 5511 5512 5513 5513 5512 5511 5510 5508 5507 5506 5505 5503 5502 5499 5497 5496 5496 5495 5493 5492 5490 5489 5487 5485 5483 5481 5478 5476 5474 5472 5469 5467 5465 5463
5495 5496 5498 5499 5500 5501 5501 5501 5501 5501 5502 5501 5500 5498 5497 5495 5492 5489 5488 5486 5487 5485 5481 5482 5479 5478 5476 5474 5472 5470 5468 5465 5463 5461 5458 5456 5454 5452
5484 5485 5486 5487 5488 5489 5489 5488 5489 5490 5490 5490 5490 5490 5488 5486 5483 5482 5479 5475 5474 5472 5470 5469 5468 5466 5464 5463 5461 5459 5457 5455 5452 5450 5447 5445 5443 5440
5471 5473 5474 5475 5477 5477 5477 5476 5477 5477 5477 5478 5478 5478 5477 5476 5473 5469 5465 5463 5463 5462 5459 5457 5456 5454 5453 5452 5451 5449 5447 5444 5442 5439 5436 5434 5432 5429
5459 5461 5463 5464 5464 5465 5465 5465 5465 5465 5465 5465 5465 5464 5463 5462 5460 5458 5456 5453 5451 5450 5449 5445 5444 5441 5441 5442 5440 5437 5435 5432 5430 5428 5426 5423 5421 5418
5447 5449 5451 5452 5453 5453 5453 5453 5454 5454 5453 5453 5452 5452 5450 5449 5447 5446 5444 5442 5440 5439 5437 5433 5431 5428 5427 5428 5427 5425 5422 5421 5419 5417 5414 5412 5409 5407
5436 5438 5439 5440 5440 5440 5440 5441 5442 5441 5439 5439 5439 5439 5438 5436 5434 5432 5431 5429 5429 5428 5426 5422 5419 5417 5414 5414 5414 5413 5411 5409 5407 5405 5403 5401 5398 5396
5424 5426 5426 5427 5427 5427 5427 5428 5428 5427 5427 5426 5426 5426 5424 5423 5420 5418 5417 5416 5414 5413 5412 5410 5408 5405 5402 5401 5401 5400 5398 5397 5394 5392 5391 5388 5386 5384
5411 5412 5413 5413 5414 5414 5414 5414 5415 5415 5415 5414 5413 5411 5410 5408 5407 5405 5404 5402 5400 5399 5397 5396 5395 5393 5390 5388 5387 5387 5385 5384 5383 5380 5378 5376 5375 5373
5400 5400 5400 5400 5400 5401 5402 5402 5402 5402 5401 5400 5399 5398 5396 5395 5394 5393 5391 5388 5386 5386 5384 5383 5381 5379 5377 5375 5374 5375 5373 5372 5370 5367 5365 5365 5365 5363
5390 5389 5389 5389 5390 5390 5390 5390 5389 5389 5388 5387 5386 5385 5384 5383 5381 5379 5378 5375 5374 5373 5371 5369 5367 5365 5364 5364 5364 5363 5362 5360 5358 5355 5353 5352 5355 5354
5378 5378 5377 5378 5378 5378 5378 5378 5377 5376 5375 5375 5374 5373 5372 5371 5369 5367 5366 5363 5361 5360 5358 5356 5353 5351 5352 5355 5356 5352 5350 5349 5347 5345 5343 5341 5342 5345
5364 5365 5365 5366 5366 5366 5366 5366 5365 5364 5363 5363 5363 5362 5361 5359 5357 5356 5354 5352 5350 5349 5347 5345 5342 5341 5341 5342 5342 5341 5339 5336 5335 5334 5333 5332 5332 5333
5351 5352 5353 5353 5353 5353 5353 5354 5354 5353 5353 5352 5351 5350 5349 5348 5346 5345 5343 5342 5340 5338 5337 5336 5335 5332 5329 5327 5326 5330 5330 5327 5325 5323 5322 5321 5322 5323
5339 5339 5340 5341 5341 5341 5341 5342 5342 5342 5341 5341 5340 5339 5338 5337 5336 5334 5332 5331 5330 5329 5328 5327 5324 5321 5318 5317 5318 5319 5318 5317 5316 5314 5312 5312 5311 5313
5325 5326 5327 5328 5328 5328 5328 5329 5330 5330 5329 5329 5328 5328 5327 5326 5325 5323 5322 5321 5320 5319 5317 5315 5313 5311 5310 5308 5308 5307 5306 5306 5306 5305 5306 5305 5304 5304